Flag for Germany Weather past 2 weeks in Pfaffenhofen an der Ilm, Bavaria, Germany

Now
61 °F

Refreshingly cool.


Feels Like: 61 °F
Forecast: 49 / 59 °F
Wind: 12 mph from Northwest

Location: Ingolstadt Airport

Current Time: Sep 5, 2015 at 7:07:29 PM

Latest Report: Sep 5, 2015 at 6:20 PM


Visibility: N/A

Pressure: 30.01 "Hg

Humidity: 52%

Dew point: 43 °F

Location of Pfaffenhofen an der IlmLocation

Historic Weather in Pfaffenhofen an der Ilm — Graph

°F

Pfaffenhofen an der Ilm temperature yesterday

Maximum temperature yesterday: 68 °F (at 2:20 PM)
Minimum temperature yesterday: 54 °F (at 4:20 AM)
Average temperature yesterday: 59 °F

Past Weeks' High & Low Weather Summary

 TemperatureHumidityPressure
High91 °F (Aug 30, 4:20 PM)100% (Aug 22, 3:20 AM)30.24 "Hg (Aug 22, 3:20 AM)
Low46 °F (Aug 26, 4:20 AM)23% (Aug 26, 6:20 PM)29.71 "Hg (Aug 24, 3:20 PM)
Average67 °F69%30.01 "Hg
* Reported Aug 21 5:20 PM — Sep 5 5:20 PM, Pfaffenhofen an der Ilm, Weather by CustomWeather, © 2015

Note: Actual official high and low records may vary slightly from our data, if they occured in-between our weather recording intervals... More about our weather records

Advertising

Pfaffenhofen an der Ilm weather history for previous 24 hours

 ConditionsComfort  
Time TempWeatherWind HumidityBarometerVisibility
5:20 PM
Sat, Sep 5
63 °FMild.13 mph49%30.01 "HgN/A
4:20 PM63 °FMild.13 mph45%30.01 "HgN/A
3:20 PM63 °FMild.12 mph45%30.01 "HgN/A
2:20 PM63 °FMild.10 mph45%30.01 "HgN/A
1:20 PM63 °FScattered clouds.13 mph49%30.01 "HgN/A
12:20 PM61 °FScattered clouds.13 mph52%30.01 "HgN/A
11:20 AM59 °FScattered clouds.10 mph59%30.04 "HgN/A
10:20 AM57 °FBroken clouds.9 mph59%30.04 "HgN/A
9:20 AM55 °FCool.9 mph67%30.04 "HgN/A
8:20 AM54 °FCool.8 mph67%30.01 "HgN/A
7:20 AM52 °FPassing clouds.8 mph77%30.01 "HgN/A
6:20 AM54 °FCool.5 mph72%29.98 "HgN/A
5:20 AM52 °FCool.1 mph77%29.98 "Hg6 mi
4:20 AM54 °FCool.5 mph77%29.98 "HgN/A
3:20 AM54 °FCool.2 mph77%29.98 "Hg6 mi
2:20 AM54 °FCool.1 mph77%29.98 "Hg6 mi
1:20 AM55 °FCool.3 mph72%30.01 "Hg5 mi
12:20 AM54 °FCool.3 mph88%30.01 "Hg5 mi
11:20 PM
Fri, Sep 4
54 °FCool.3 mph82%29.98 "Hg5 mi
10:20 PM57 °FPassing clouds.1 mph67%29.98 "HgN/A
9:20 PM55 °FPassing clouds.1 mph82%29.98 "HgN/A
8:20 PM59 °FCool.1 mph68%29.95 "Hg5 mi
7:20 PM64 °FPassing clouds.3 mph52%29.95 "HgN/A
Weather by CustomWeather, © 2015

See weather overviewHow to use our weather pages